Wind_Speed
44 44 42 40 39 39 39 40 39 39 38 36 32 29 28 26 23 22 23 24 26 29 34 39 45 49 52 53 53 52 51 50 50 50 51 52 51 50 49 48 47 47 46 44 43 41 39 37 35 34 31 29 27 25 23 22 20 18 16 14 12 11 12 13 13 12 11 10 9 9 7 5 4 4 3 3 4 5 5 5 5 4 4 4 3 3 3 3
44 44 42 41 40 39 39 40 40 40 39 38 34 30 29 28 25 23 24 25 26 31 37 43 48 50 52 53 53 52 51 50 50 49 49 51 50 50 49 48 48 47 46 45 43 41 39 38 36 34 31 29 28 26 24 21 19 17 16 14 12 12 12 12 12 12 11 10 9 9 7 6 5 5 5 4 5 6 6 6 5 4 4 3 3 3 3 3
44 44 43 41 40 39 39 40 41 41 40 39 36 32 32 30 27 25 26 28 28 34 42 47 50 52 51 50 51 51 50 50 50 48 49 50 49 49 49 48 48 47 46 45 43 41 40 38 36 34 32 30 28 26 24 21 18 17 16 14 13 12 12 12 11 12 12 11 10 8 7 6 6 6 6 6 6 6 6 6 5 4 4 3 3 3 3 3
44 44 43 42 40 39 39 40 41 41 41 41 37 34 34 32 29 27 29 31 32 37 45 49 51 52 50 48 47 48 48 48 48 48 49 49 49 49 48 48 47 47 46 45 43 42 40 39 37 35 33 31 28 26 24 21 19 17 16 14 14 13 12 12 12 13 12 11 9 8 7 7 7 7 7 7 7 7 6 5 5 4 4 4 3 3 3 3
44 44 44 42 41 39 39 40 41 42 42 42 39 35 36 34 30 29 32 36 37 39 43 47 49 50 49 46 45 46 47 45 46 48 48 48 47 47 47 47 47 47 46 45 43 42 40 39 37 35 33 31 29 26 23 21 19 17 16 15 14 13 13 13 14 14 12 11 9 8 7 8 8 9 8 8 8 7 6 6 5 4 4 4 4 4 4 3
45 44 44 43 42 40 40 40 42 42 43 43 40 37 37 35 31 31 35 41 41 39 39 41 43 45 45 43 42 44 44 43 44 46 46 46 45 45 46 46 47 47 46 45 43 42 41 39 37 35 33 32 29 27 23 21 19 18 16 15 14 14 14 14 14 14 13 11 9 8 8 8 9 9 9 9 8 7 7 6 6 5 5 5 5 4 4 4
45 45 44 44 42 41 40 40 42 43 43 43 41 39 39 36 34 33 38 44 44 41 38 37 37 39 39 39 39 41 40 40 42 43 42 43 43 43 44 44 46 46 46 45 44 43 41 39 37 36 34 33 30 27 24 22 20 19 17 16 16 16 14 15 15 14 14 12 10 9 9 9 10 10 10 9 9 8 7 7 6 6 5 5 5 5 4 4
45 45 44 44 43 41 40 41 42 44 44 44 41 41 41 38 37 35 39 45 45 42 39 37 36 35 36 36 36 37 37 38 40 41 40 41 42 43 43 44 45 45 46 45 44 43 41 39 38 36 35 32 30 27 25 23 22 21 19 18 18 16 14 14 15 14 14 13 11 10 10 11 11 12 11 10 9 8 8 8 7 7 6 5 5 4 4 3
44 45 45 44 43 42 41 41 43 44 45 45 43 43 43 41 40 38 40 44 45 42 39 38 37 35 35 35 35 35 35 36 38 38 38 40 41 42 43 44 46 46 46 45 44 43 41 40 38 37 35 32 30 28 26 25 23 22 21 20 19 17 15 15 16 15 15 13 12 11 11 12 13 13 11 10 10 9 9 9 9 8 6 6 5 4 3 3
44 45 45 44 43 42 41 42 43 45 46 46 44 44 45 43 42 41 41 44 44 43 41 39 38 37 36 35 35 34 34 35 36 36 37 38 39 41 43 44 45 46 46 46 45 44 42 41 39 37 35 33 31 29 28 26 25 24 23 21 20 19 17 17 17 16 15 14 13 13 12 12 13 13 11 10 10 10 10 9 9 9 7 6 5 4 4 3
45 45 45 44 44 43 42 42 44 46 47 46 45 46 46 45 45 44 42 43 44 43 41 39 38 38 37 36 35 34 34 35 35 35 37 37 38 41 43 44 45 46 46 46 46 45 43 42 40 38 36 34 32 31 29 28 27 25 24 23 22 21 20 19 18 17 16 15 14 14 13 12 13 14 13 12 12 11 10 9 9 8 8 7 6 5 5 4
45 45 46 45 44 44 42 42 44 47 48 48 47 48 48 47 46 46 44 43 43 42 41 39 38 38 38 38 36 35 36 36 35 36 36 37 38 40 42 43 45 46 46 46 46 45 44 42 40 38 37 35 34 33 31 30 28 27 26 24 23 22 21 20 19 19 18 17 16 15 14 13 14 15 14 13 13 13 12 11 10 9 8 7 7 6 5 4
45 45 46 45 44 44 43 43 45 47 49 49 49 49 50 48 47 47 46 44 43 42 41 40 40 39 39 39 38 37 36 36 36 36 37 37 38 38 40 42 43 44 45 45 45 45 44 43 41 40 39 37 36 35 33 31 30 28 27 26 25 23 21 20 20 21 20 19 18 17 16 15 15 16 15 14 14 14 13 13 11 10 9 9 8 7 6 5
45 45 46 46 45 45 44 43 45 47 49 50 51 51 52 51 49 49 47 45 44 43 42 42 41 41 40 39 40 39 37 36 36 35 36 37 38 38 39 40 42 43 44 45 45 45 45 44 43 42 41 39 38 36 35 33 31 30 29 28 26 24 22 22 22 22 22 20 19 18 17 17 16 15 16 16 15 15 14 14 13 12 11 10 9 8 7 6
45 45 46 46 45 45 45 44 45 47 50 51 52 53 54 53 52 51 49 47 45 44 43 43 43 43 41 40 41 41 39 37 36 35 35 36 37 38 38 39 40 41 43 44 44 45 45 45 44 43 42 40 39 38 36 34 33 32 31 30 27 25 24 23 23 24 23 22 21 19 18 18 17 17 17 16 16 16 15 15 15 14 13 11 10 9 8 7
45 45 46 47 46 46 46 45 45 47 50 52 53 54 55 55 54 53 51 49 47 45 44 44 44 43 43 42 41 41 39 38 37 36 35 34 35 37 38 39 39 40 41 43 44 44 44 45 45 44 43 41 40 39 38 36 35 34 32 30 28 26 25 25 25 25 24 23 21 20 19 19 18 18 18 17 17 17 16 16 16 15 14 12 11 10 9 9
47 45 46 48 47 47 47 47 46 48 50 53 54 55 56 56 55 55 54 51 49 47 46 45 44 44 44 43 42 40 39 38 37 37 36 35 34 35 36 38 39 40 40 41 43 43 44 44 44 43 43 42 41 41 40 39 36 34 33 30 29 28 27 27 27 26 26 24 23 21 20 20 20 20 19 18 18 17 17 18 17 16 15 14 13 12 11 11
49 47 47 48 48 47 48 49 47 48 51 54 55 56 56 57 57 56 56 54 52 50 48 47 46 46 45 44 42 40 39 38 38 38 38 37 36 35 35 36 38 40 41 41 42 43 43 44 44 44 44 43 43 42 41 38 35 33 33 31 30 30 29 28 28 27 27 26 24 22 21 21 22 22 20 19 19 18 19 18 17 17 16 16 14 14 13 12
51 48 48 49 49 48 49 50 49 49 51 54 56 56 57 58 58 58 58 56 54 52 51 49 47 47 45 44 43 40 39 39 38 38 38 38 37 37 36 36 37 39 41 41 42 43 43 43 44 44 44 43 42 40 38 37 36 35 35 35 34 32 31 30 30 30 29 28 26 24 22 23 24 23 21 21 20 20 19 19 18 18 18 17 16 15 14 13
52 50 49 50 50 48 49 51 51 50 51 54 56 57 57 58 59 60 60 58 55 53 52 50 49 48 46 45 43 41 40 40 40 39 39 38 38 38 38 38 37 38 39 40 41 42 42 43 43 42 41 40 39 39 39 39 38 38 38 37 35 34 33 32 32 32 31 30 28 26 25 25 25 24 24 24 22 20 20 20 20 20 19 18 17 16 16 16
53 52 50 50 50 48 49 52 52 52 52 53 56 57 57 57 58 59 59 59 57 55 54 52 51 50 48 46 44 42 41 40 40 39 39 39 39 39 39 39 39 38 39 39 40 41 42 42 41 40 40 40 40 41 41 40 39 39 38 37 36 35 34 33 33 33 33 32 30 29 27 25 25 26 26 26 23 20 21 22 21 21 20 19 18 18 18 18
55 53 51 51 52 49 49 51 53 53 52 53 55 57 57 57 58 58 58 58 57 57 56 55 54 52 50 48 46 44 42 41 40 39 39 39 39 39 39 39 39 39 39 39 40 41 41 40 39 40 41 41 42 42 42 41 40 39 39 38 37 36 35 35 35 34 34 33 31 30 29 26 26 27 27 26 24 21 23 24 23 23 21 19 21 21 21 21
57 55 53 52 52 51 49 51 54 54 52 52 53 56 57 57 59 60 59 59 57 57 57 57 56 54 52 50 48 46 44 42 41 40 39 39 38 39 39 39 40 40 40 39 39 40 39 39 40 41 41 41 41 41 41 41 40 40 39 38 37 36 35 35 35 35 35 35 33 32 31 27 27 28 27 27 25 23 25 26 25 25 23 22 24 24 24 24
59 56 54 53 53 53 50 50 53 54 53 52 53 55 56 56 58 61 62 61 60 59 58 58 57 56 54 53 50 48 46 44 42 41 40 39 38 38 38 39 40 40 40 40 40 39 39 39 40 40 40 41 41 41 41 41 40 39 38 37 37 36 36 36 36 36 36 37 35 33 33 29 27 29 29 28 27 25 27 28 27 26 25 25 26 26 27 26
60 57 55 54 54 53 52 50 52 54 54 53 53 55 57 57 58 60 62 63 63 62 62 61 59 58 56 54 52 50 48 46 44 42 41 41 39 38 38 39 39 40 40 40 40 41 41 40 40 40 40 41 41 41 40 40 39 38 38 37 37 36 36 37 37 37 38 38 37 35 35 31 28 30 30 29 28 27 28 28 28 27 26 26 27 28 29 27
59 58 56 55 54 54 54 51 51 55 55 54 54 55 57 58 59 60 62 64 66 66 64 63 62 61 58 56 54 52 50 48 46 44 42 42 41 40 39 39 39 40 41 41 42 42 41 41 41 41 41 41 40 40 40 40 39 38 37 37 37 37 37 37 38 39 39 39 38 37 37 33 29 29 30 29 29 29 29 29 28 28 28 28 28 31 30 28
59 58 57 57 55 55 55 52 52 54 56 55 56 56 57 59 60 60 61 65 68 67 66 65 64 62 60 58 56 54 53 49 47 46 44 43 42 41 41 40 40 40 40 42 43 42 42 41 41 41 40 40 40 40 40 39 39 38 37 37 37 38 38 39 39 39 40 40 40 38 38 36 30 28 29 30 30 30 30 30 30 29 30 30 31 32 30 30
59 58 58 57 56 57 56 54 51 53 56 57 57 57 58 59 60 61 61 66 69 68 67 67 65 63 62 60 58 56 54 50 48 47 45 44 44 43 42 40 40 40 40 40 41 41 41 41 40 39 39 39 39 39 39 39 39 38 37 38 38 39 39 39 39 39 40 41 41 39 38 39 33 27 28 30 30 30 30 31 31 31 31 31 32 33 32 33
59 58 58 57 57 57 57 55 52 54 57 58 58 58 58 60 61 62 63 67 70 68 68 68 66 65 64 62 60 58 55 53 51 49 46 46 45 44 43 41 41 41 40 40 40 40 40 41 41 40 40 39 39 39 39 39 39 39 38 38 39 39 39 39 39 39 40 42 42 40 39 40 36 29 28 30 30 30 31 32 32 31 32 33 34 35 35 36
59 58 57 57 57 57 57 55 54 56 58 59 59 58 59 61 62 64 66 68 69 68 68 68 67 67 65 63 62 60 57 55 53 51 50 49 47 45 45 44 42 41 40 40 41 41 41 42 42 42 41 40 40 40 40 40 40 40 39 39 39 40 39 39 39 40 41 43 43 42 40 40 40 33 30 31 31 32 33 33 32 33 34 35 36 37 37 37
59 58 57 56 56 57 57 56 57 58 59 60 60 60 61 62 63 65 67 67 67 68 68 68 68 68 66 64 62 61 60 58 56 55 53 51 49 48 48 47 46 44 43 42 42 42 42 43 44 43 42 41 41 40 40 40 40 40 40 40 40 40 39 39 40 40 42 43 43 42 40 41 42 37 32 34 34 33 34 34 34 35 36 37 38 38 37 36
60 60 59 57 56 58 58 57 57 58 60 61 61 62 62 63 66 67 65 64 67 69 68 68 68 67 66 65 63 62 62 61 59 57 55 53 52 50 49 49 47 46 45 44 43 43 42 42 42 42 42 41 41 41 41 41 40 40 39 39 38 38 39 39 40 41 42 42 43 42 41 42 42 38 37 38 37 34 34 35 35 36 37 37 37 37 37 36
62 61 61 59 58 59 59 59 59 60 61 61 62 63 64 66 68 66 63 64 67 67 66 66 67 66 67 67 66 65 64 62 60 59 57 56 54 52 51 50 48 47 45 43 43 42 41 42 41 41 41 41 41 41 41 40 39 39 38 38 38 38 39 40 40 40 40 41 42 41 41 42 40 38 39 41 38 35 34 35 35 36 37 37 36 36 37 37
64 64 63 61 60 60 61 60 60 61 61 62 63 64 65 68 67 63 62 64 66 65 64 66 67 67 68 68 68 66 65 64 63 61 60 58 57 55 53 51 50 49 47 45 44 43 43 42 41 40 40 40 40 40 40 39 39 40 40 41 41 40 41 41 40 40 40 40 41 41 41 41 38 37 38 39 38 36 35 35 36 36 37 37 37 37 37 38
65 66 66 64 63 62 62 62 61 62 63 63 64 66 68 68 65 62 63 63 64 64 64 65 67 67 68 69 69 68 66 66 64 63 62 61 59 57 54 52 52 51 50 49 47 46 45 44 41 40 39 39 39 39 40 40 41 42 43 43 43 42 42 42 41 41 40 40 40 40 40 39 36 36 37 37 37 38 37 36 36 36 36 36 37 38 38 40
65 66 67 66 64 63 63 63 63 63 63 64 66 68 69 66 62 62 62 62 63 63 64 65 68 69 69 70 70 70 69 67 65 64 64 62 61 59 56 54 52 51 51 49 49 48 46 45 43 42 42 41 41 41 41 42 43 43 44 43 42 42 42 41 41 41 41 41 41 39 39 37 35 36 36 36 37 38 39 38 37 37 38 38 38 38 39 40
64 63 64 64 65 65 64 63 63 63 64 65 67 68 65 63 62 63 63 63 63 64 65 66 67 69 70 70 70 70 70 69 68 66 65 64 63 61 58 56 54 52 51 50 49 48 47 46 45 44 43 43 42 42 43 44 44 44 45 44 43 43 43 42 42 42 42 42 41 39 38 36 36 36 36 36 37 38 39 39 39 39 39 39 39 38 39 40
60 62 62 63 64 65 65 64 64 64 63 65 67 66 63 63 65 65 65 64 63 64 66 66 66 67 68 69 69 69 70 70 70 69 67 66 65 62 59 58 56 54 53 52 52 51 49 48 47 46 45 44 44 44 44 44 44 45 45 44 44 44 44 42 43 43 42 42 41 39 38 37 36 36 36 37 38 38 38 39 39 39 39 39 39 40 40 41
56 60 62 62 63 63 64 65 64 64 65 66 67 64 63 65 67 66 65 64 64 65 66 66 66 65 66 66 66 67 69 69 69 69 69 68 66 64 61 59 57 56 56 55 54 54 53 51 50 49 48 47 46 46 46 45 45 45 45 45 45 45 44 43 43 43 42 43 42 41 41 40 37 36 36 37 38 38 38 39 39 39 39 40 41 41 42 41
51 58 61 62 62 63 63 64 64 65 66 66 63 62 62 65 68 67 66 65 65 65 66 66 65 65 65 65 65 65 66 67 67 67 68 68 67 65 62 60 58 57 56 57 56 55 54 53 53 52 51 51 49 48 47 46 46 45 45 45 44 43 44 44 44 43 43 43 43 44 43 41 37 36 37 38 38 38 39 41 41 41 41 41 42 42 43 43
48 55 60 62 63 63 64 65 66 66 64 61 59 60 63 65 67 68 68 67 66 66 66 66 65 64 64 64 64 64 64 65 66 66 67 67 66 66 63 60 59 58 58 59 58 56 56 56 55 54 54 52 50 49 48 48 47 46 46 45 44 44 44 45 45 45 44 45 45 45 45 41 37 37 38 39 39 40 41 43 43 43 42 42 43 44 45 46
50 52 57 61 63 63 64 64 65 65 62 58 58 60 61 62 65 67 69 68 68 68 67 67 66 65 64 64 64 63 64 64 65 65 66 66 66 65 63 61 60 59 59 58 57 56 56 56 56 55 54 52 51 50 49 49 48 48 47 46 45 47 47 48 49 47 46 46 45 46 47 41 37 38 39 40 41 42 43 44 44 44 44 44 46 47 48 50
52 51 54 60 63 64 66 66 66 65 62 59 59 60 60 61 64 67 68 69 69 69 69 69 68 66 65 65 64 64 64 64 64 64 64 65 64 63 63 63 61 60 59 58 58 57 56 57 57 56 55 55 54 53 52 51 51 50 49 48 48 50 50 50 50 49 49 48 46 47 46 41 38 39 40 41 42 43 44 44 44 45 46 47 50 51 52 54
51 51 54 59 63 67 68 67 64 61 59 59 61 62 62 62 64 66 68 68 68 69 69 69 68 67 66 65 65 65 65 65 66 65 64 64 64 63 63 63 61 60 60 59 59 58 58 58 59 59 59 59 58 57 57 55 54 54 52 52 52 52 52 52 51 51 51 48 46 48 47 41 40 41 42 43 44 45 46 46 46 48 49 51 53 54 56 58
51 51 53 56 61 66 68 66 64 61 59 61 62 61 61 62 63 64 65 67 67 68 68 68 68 68 66 65 65 65 65 65 65 65 65 65 65 64 64 64 63 61 59 58 58 57 57 58 59 59 61 61 60 59 57 55 54 55 54 53 53 52 52 52 51 52 52 48 48 51 48 43 43 44 45 47 49 49 50 50 50 51 53 54 56 58 60 61
53 51 53 55 58 62 64 63 63 64 63 62 61 59 60 60 60 60 61 64 65 66 66 66 66 67 67 66 65 65 65 64 64 65 65 65 64 64 63 63 64 62 61 60 59 58 58 59 60 61 62 62 60 57 55 53 52 52 50 50 50 50 51 51 52 54 52 51 53 53 50 48 47 48 50 50 52 53 53 53 55 55 56 58 59 61 61 61
54 52 53 55 56 59 60 59 58 59 60 61 61 60 59 58 57 58 60 61 62 64 65 66 66 66 67 66 65 65 64 64 64 64 64 63 64 64 63 63 62 62 61 61 61 61 61 62 62 63 63 62 60 58 58 56 55 53 52 52 51 51 51 52 55 55 53 55 57 53 51 53 51 51 53 52 53 56 56 57 59 58 59 60 61 61 61 61
56 53 52 54 56 57 59 59 56 55 56 57 59 59 59 60 60 59 58 57 58 60 62 64 65 65 65 65 64 65 64 65 65 64 63 63 63 63 64 63 63 62 61 60 61 61 62 63 63 63 63 61 60 61 61 60 59 58 58 58 57 57 58 59 59 58 57 61 60 54 55 57 53 52 54 54 55 58 58 60 60 60 60 61 62 63 63 63
58 57 55 55 56 56 56 58 58 58 59 58 57 57 58 60 61 60 59 59 59 59 60 61 61 61 62 63 63 64 64 65 65 64 63 63 64 64 64 64 64 63 63 63 62 61 62 62 62 62 62 62 61 62 62 62 62 61 60 60 59 59 60 61 61 59 60 63 62 58 61 61 57 56 58 56 58 60 60 61 60 60 61 63 65 66 66 66
59 60 59 58 57 56 55 57 58 60 61 60 59 57 57 58 59 60 62 63 62 61 60 58 56 57 60 62 63 64 63 63 63 63 63 63 64 64 63 63 63 62 63 63 62 62 61 61 61 61 62 62 62 62 62 63 64 64 62 61 60 60 61 63 63 62 63 66 64 63 65 64 59 59 60 59 59 61 61 61 61 61 63 64 66 67 67 68
58 59 59 59 59 58 57 57 58 60 61 61 59 57 57 57 57 58 61 62 62 62 61 57 56 57 60 61 62 62 61 61 62 62 62 63 63 62 62 62 61 60 60 60 60 60 59 59 60 60 62 63 63 62 62 63 64 65 64 63 62 63 64 65 65 64 65 66 64 64 67 65 61 60 60 61 61 61 61 62 62 63 64 64 65 66 67 68
59 58 59 59 60 61 60 58 58 60 61 60 58 57 57 57 56 58 61 61 61 61 60 59 59 60 62 63 61 59 60 61 61 62 62 63 63 62 62 62 61 59 58 57 57 57 56 56 57 58 60 61 61 61 61 61 63 66 67 65 65 66 66 67 67 66 66 66 66 66 68 65 62 63 64 65 65 64 64 63 64 64 64 65 66 67 67 67
Wind_Direction
212 211 210 210 210 210 210 211 211 210 211 212 213 214 216 221 227 229 228 222 213 208 202 196 190 185 181 178 175 172 173 175 175 176 177 179 180 180 181 181 181 180 180 180 180 179 178 178 179 181 181 181 180 178 177 176 174 170 168 167 162 164 164 167 178 187 190 189 183 186 189 182 190 199 197 190 161 144 142 143 142 138 133 127 127 125 116 103
212 212 212 211 210 210 209 210 209 208 209 209 210 211 213 217 222 223 220 216 207 200 195 190 186 181 177 176 174 173 174 175 175 177 179 181 181 181 182 182 182 182 182 182 182 181 180 180 181 183 183 184 183 183 182 180 176 172 171 170 167 171 175 176 181 187 192 191 188 194 192 183 191 190 186 188 166 154 152 149 147 142 136 130 124 120 115 104
213 213 213 212 210 210 209 209 208 206 207 207 208 208 209 213 217 217 211 206 198 192 189 185 181 178 175 174 174 174 176 176 177 180 182 182 182 183 183 183 183 184 184 184 183 182 182 182 183 184 186 187 187 187 186 182 179 177 174 173 175 181 184 182 184 188 193 194 192 200 196 185 191 188 183 186 171 161 159 152 148 148 144 133 122 120 116 107
212 213 214 213 211 210 209 208 207 205 205 205 205 205 206 209 212 211 203 194 187 185 186 183 179 176 174 174 175 176 177 178 180 182 184 184 185 184 184 184 185 186 186 186 185 184 184 185 185 186 188 190 190 190 189 184 183 182 178 178 182 191 190 183 187 191 195 197 196 202 200 191 193 189 184 184 175 166 161 155 152 154 151 137 126 124 118 111
211 212 213 213 212 210 209 208 206 205 204 203 203 202 203 205 207 206 197 186 179 179 182 181 179 176 174 175 177 178 179 180 183 185 186 187 187 186 185 186 187 188 188 188 187 187 187 188 188 189 191 192 193 193 192 187 187 187 184 185 190 199 197 190 194 196 196 200 200 204 203 196 195 191 186 185 178 170 164 161 159 159 157 146 138 132 123 116
211 212 213 213 212 211 209 207 206 204 203 203 202 200 201 202 203 201 193 182 175 176 178 179 180 177 176 177 180 181 180 182 185 186 187 188 189 188 188 188 189 190 190 190 189 189 190 190 190 192 194 195 195 195 193 191 193 194 191 192 200 204 201 198 202 200 198 202 204 206 204 198 199 194 187 187 182 173 168 165 166 164 162 155 146 142 134 128
210 212 213 213 213 211 209 207 206 204 202 202 201 199 199 199 199 198 192 183 177 177 179 180 182 180 180 181 183 183 183 186 187 187 188 189 190 191 190 191 192 192 192 192 192 192 193 193 194 195 197 198 198 197 195 194 197 199 197 198 206 210 207 207 208 205 202 204 207 207 203 197 201 199 190 189 186 177 171 170 172 171 168 165 158 153 145 138
210 212 212 213 213 211 209 207 205 204 202 202 200 197 197 197 197 196 191 186 181 179 181 182 184 185 184 184 185 185 186 189 190 189 190 191 192 193 193 194 195 195 194 194 194 195 195 196 197 198 200 201 200 200 198 199 200 202 203 201 208 216 214 214 215 210 205 207 211 210 202 194 200 206 196 189 188 182 175 173 178 179 176 174 171 164 154 145
210 211 212 212 212 211 209 207 205 203 202 201 199 196 196 195 196 196 191 189 185 182 183 184 185 187 188 187 187 188 190 192 192 192 193 194 196 196 196 196 196 197 197 197 197 197 198 199 200 202 203 203 203 204 203 204 204 206 208 206 211 219 218 218 219 213 208 210 216 216 205 195 202 211 202 188 187 186 182 180 183 186 186 187 183 173 160 152
210 211 212 212 211 211 209 207 205 203 201 201 198 195 196 195 195 196 193 191 189 186 186 187 188 189 190 190 189 191 193 193 194 196 197 198 199 198 199 199 198 198 199 199 199 199 200 201 203 204 205 205 205 207 208 209 209 210 212 210 212 219 219 220 221 216 211 214 221 222 212 200 202 209 204 191 187 190 192 191 191 191 191 194 192 178 168 162
212 211 212 212 211 210 209 207 205 202 201 200 198 195 195 195 194 196 197 195 192 190 189 190 192 191 191 192 192 194 196 195 196 198 199 201 201 200 200 201 201 201 201 201 202 202 202 204 205 207 208 209 209 211 212 213 213 213 216 215 214 219 219 219 221 219 216 218 223 225 219 206 199 203 205 195 189 194 199 202 203 200 197 199 195 183 178 177
213 212 213 213 212 210 209 207 205 203 201 199 197 196 195 195 194 195 198 199 197 194 193 194 195 195 194 193 194 197 197 196 198 199 200 201 202 202 203 203 203 203 203 203 204 204 205 206 207 209 210 211 212 214 214 215 216 216 218 219 220 222 221 218 218 218 218 220 224 226 222 211 200 201 205 200 195 198 202 207 212 212 208 205 200 192 193 198
214 212 213 214 212 210 209 207 206 203 201 199 197 196 196 195 194 195 197 200 201 199 197 197 197 198 196 194 195 196 197 197 199 201 202 203 203 203 204 205 205 205 205 205 206 207 207 208 209 211 212 213 214 215 216 216 217 219 221 222 224 225 224 221 218 218 219 220 223 226 222 216 208 201 204 204 203 205 207 210 213 214 213 209 205 204 208 216
216 213 213 214 213 211 209 207 206 204 202 200 198 196 196 195 195 194 195 198 202 202 201 200 199 199 197 196 197 195 196 197 198 200 202 204 205 205 205 205 206 206 206 207 207 208 209 210 211 212 213 214 216 217 217 218 219 221 223 224 225 226 225 223 221 219 221 221 224 226 222 220 215 205 206 208 208 209 211 214 214 213 213 212 214 215 222 234
216 214 213 215 214 211 210 208 206 204 202 201 199 198 197 196 195 195 195 197 201 203 203 202 201 200 197 197 198 196 195 197 198 199 200 202 205 206 206 206 207 207 208 208 209 209 210 211 213 214 215 216 217 219 220 220 221 223 224 226 226 227 226 225 223 221 222 223 225 227 224 223 219 212 212 211 211 213 213 215 214 212 213 216 223 228 235 249
216 214 213 215 215 212 210 208 206 205 203 201 200 199 199 197 197 197 196 196 199 202 204 203 202 201 198 198 198 197 196 198 199 201 201 201 204 206 207 208 208 209 209 210 210 211 212 212 214 215 216 217 219 221 223 223 224 225 226 227 227 228 227 227 225 223 222 223 225 228 226 225 222 219 219 215 214 215 213 214 213 212 214 219 230 237 245 256
216 214 213 215 216 213 210 209 207 206 204 202 201 201 200 199 199 199 198 197 198 201 203 203 202 201 199 199 199 198 198 200 201 202 203 203 204 206 208 209 209 210 212 212 212 213 213 214 215 216 218 219 221 222 224 225 227 229 230 231 231 230 229 227 226 223 222 223 225 228 227 227 226 225 225 221 217 215 213 213 212 213 216 222 231 240 248 259
217 215 213 215 217 214 210 209 207 206 205 203 202 202 202 201 201 201 200 199 199 200 202 202 202 201 199 200 200 199 200 202 204 204 204 205 205 206 208 210 210 211 212 214 214 215 215 216 216 217 219 220 222 224 227 228 229 230 232 232 231 232 231 228 226 224 224 224 226 228 228 229 229 228 228 225 220 215 213 213 214 217 220 225 231 240 249 260
217 215 213 214 218 215 211 209 207 207 206 204 203 203 203 202 202 203 203 201 201 201 202 202 201 201 200 201 201 202 202 203 205 206 206 206 207 208 210 211 211 211 213 214 215 216 217 218 218 219 220 222 224 226 228 228 228 229 229 229 229 230 230 228 226 224 224 225 227 229 227 228 231 231 231 229 223 215 214 216 218 222 226 229 234 242 251 260
217 215 213 214 217 216 212 210 208 207 207 205 204 204 204 204 203 205 206 205 204 203 202 201 201 202 202 203 204 204 205 205 206 207 207 208 208 210 211 212 212 212 213 214 215 216 218 219 220 222 223 224 225 226 227 228 228 228 229 230 231 231 230 229 227 224 224 225 227 229 228 228 231 232 232 232 227 217 216 221 223 226 230 233 239 246 253 259
217 216 214 213 216 217 213 211 209 208 208 206 205 205 205 206 206 207 208 207 206 204 202 201 201 203 203 204 205 206 207 208 208 208 208 209 210 211 212 213 214 214 214 214 215 216 217 219 220 221 221 222 223 224 226 227 228 229 230 231 231 231 231 230 228 225 225 226 227 231 231 228 230 232 232 233 230 221 222 226 228 232 236 239 245 249 254 260
217 216 214 213 215 217 214 212 210 208 208 207 206 205 205 206 207 207 208 208 207 205 202 200 201 203 204 205 206 207 208 209 210 210 210 210 211 212 213 214 215 215 215 215 216 217 218 218 218 219 220 222 224 225 227 228 228 229 230 231 231 231 230 230 229 227 226 227 228 232 234 229 229 233 234 235 231 224 227 230 231 236 240 244 249 252 255 260
217 216 215 214 215 217 216 213 212 210 208 208 207 206 206 206 207 207 207 208 208 206 203 201 202 203 204 206 207 208 208 209 210 211 211 211 212 213 213 214 216 216 216 216 217 218 219 219 219 220 222 224 225 227 228 229 230 231 231 232 231 231 230 230 230 229 227 228 230 234 237 232 230 234 235 236 234 227 229 232 233 236 240 244 249 253 256 258
216 216 215 215 215 217 217 214 213 211 209 208 207 207 207 207 208 208 208 208 208 207 206 204 204 205 205 206 207 208 209 209 210 211 212 213 213 214 214 215 216 216 217 217 217 218 218 219 219 221 222 223 225 226 227 228 229 230 230 231 231 231 231 230 230 230 229 230 231 235 239 235 231 234 235 236 237 232 232 235 236 238 241 246 252 256 258 260
216 215 214 214 214 216 218 215 213 212 209 208 208 208 208 208 209 209 209 209 209 208 207 205 205 206 207 207 208 209 210 210 211 212 212 213 214 214 215 216 216 216 217 217 218 218 218 218 219 220 222 223 225 226 226 228 228 228 229 229 231 231 232 231 231 231 230 231 232 235 240 237 231 234 236 236 237 236 235 238 241 244 247 251 256 259 260 263
215 215 214 214 214 215 218 216 213 212 209 209 210 209 209 209 210 210 210 211 210 209 208 207 206 206 207 208 209 210 211 211 212 213 214 214 214 214 215 216 217 217 218 218 218 219 219 220 220 221 222 223 225 226 227 228 228 228 228 229 230 231 232 233 232 231 231 231 232 235 240 241 231 231 236 237 236 237 238 241 243 248 251 253 257 260 262 265
214 215 214 213 213 214 217 216 214 212 210 209 210 210 210 211 211 211 211 213 212 210 209 208 207 207 207 208 210 211 212 212 212 214 215 216 216 216 216 216 217 218 219 219 219 219 220 221 222 223 224 225 226 227 227 228 229 229 229 229 230 231 232 233 233 233 232 232 233 234 240 244 235 227 234 237 237 238 240 243 246 249 253 255 258 261 263 266
214 215 215 213 212 214 216 216 215 212 210 210 211 211 212 212 212 212 212 214 213 210 210 210 208 208 208 209 210 211 212 212 214 216 216 217 218 218 218 218 218 219 219 220 221 221 222 222 223 224 225 227 227 228 228 228 229 229 229 229 230 231 232 233 234 235 235 234 234 235 239 245 240 227 230 236 237 240 242 245 248 250 253 256 259 262 264 265
213 215 215 212 211 213 215 216 214 212 211 210 211 212 213 213 213 213 214 215 213 211 211 211 210 210 210 210 211 212 213 213 215 217 218 219 220 219 220 220 220 220 219 219 220 220 221 222 223 224 224 225 226 227 228 228 229 229 229 230 231 232 233 234 235 236 237 236 236 237 239 245 246 234 230 235 237 241 243 246 250 253 255 258 260 263 265 266
213 215 215 213 212 213 215 216 214 212 211 211 212 213 214 214 214 214 215 214 213 212 212 212 212 212 211 211 211 212 213 214 215 217 218 219 220 220 221 221 221 222 221 220 220 220 221 222 223 223 224 225 225 227 228 228 229 229 230 231 232 234 234 236 237 237 238 238 238 240 240 245 249 243 237 239 241 243 245 248 253 256 258 261 263 264 265 266
213 216 216 214 213 213 215 216 215 213 212 211 212 214 215 215 215 216 215 213 214 213 212 212 213 213 213 213 213 213 214 215 216 217 219 219 220 220 221 221 221 221 221 220 222 222 222 223 223 224 225 226 227 228 230 230 231 231 232 233 234 235 236 237 238 238 240 240 240 241 242 244 249 249 247 247 246 246 251 255 257 259 260 262 264 265 265 266
212 215 216 215 214 213 214 215 215 214 212 211 212 214 216 216 216 216 214 213 216 215 212 214 214 214 215 215 216 216 216 217 217 218 220 221 222 222 222 223 223 223 223 222 223 224 224 225 226 226 227 228 229 230 231 232 233 233 234 235 236 237 239 239 240 241 241 242 242 244 244 244 247 251 254 254 251 250 255 259 261 262 263 263 264 266 267 268
212 215 216 216 214 213 214 214 214 213 212 212 213 215 216 218 217 215 213 214 217 216 213 215 216 216 216 217 217 217 217 219 219 220 222 222 223 223 224 224 225 226 226 226 227 228 228 228 228 229 229 230 231 232 234 235 236 237 238 238 238 239 240 240 241 242 243 244 245 246 247 246 246 250 254 257 258 257 258 260 261 262 264 265 267 268 270 271
212 214 216 215 213 212 213 213 213 213 212 212 214 215 217 218 217 214 214 215 218 217 214 215 217 217 218 218 219 219 218 219 220 221 223 223 224 224 225 225 225 226 226 227 228 229 230 230 231 232 233 233 234 235 236 237 237 238 238 238 237 237 239 240 240 242 242 244 245 247 248 249 249 250 253 258 261 261 260 260 260 261 263 266 268 270 271 273
212 214 215 213 212 211 212 213 213 212 212 212 214 216 218 218 216 214 216 216 218 219 216 216 218 219 219 219 219 220 220 221 221 221 222 224 225 226 227 228 228 228 228 228 229 229 230 231 231 233 234 235 236 237 237 237 238 238 238 239 239 239 241 242 243 243 244 245 246 247 249 250 251 252 253 256 259 261 262 261 261 263 263 265 267 268 270 273
211 211 212 212 210 211 212 213 213 213 213 212 214 217 218 217 216 217 217 217 219 220 219 218 218 219 220 220 220 221 221 222 222 223 224 225 226 226 228 229 230 231 231 232 233 233 234 234 233 233 234 234 235 236 237 238 239 239 240 241 242 243 244 245 246 246 247 247 246 246 248 250 251 252 253 255 258 261 264 265 266 266 265 266 266 268 269 271
209 209 210 211 211 211 212 212 213 213 213 213 215 217 218 217 217 218 219 219 219 220 221 220 220 220 220 221 221 222 222 222 223 223 224 225 226 226 227 229 230 231 232 233 235 236 237 238 237 236 237 237 237 238 238 238 240 241 242 242 243 244 244 245 247 247 248 249 248 248 249 250 251 253 254 256 258 260 264 267 268 269 270 270 270 270 271 272
211 210 210 211 211 211 211 212 213 213 214 214 216 217 217 217 218 218 218 219 220 221 223 223 222 222 222 223 223 223 223 224 224 224 225 225 227 227 228 229 230 231 232 232 234 235 236 238 238 237 238 238 238 239 239 240 241 242 243 244 244 246 246 247 248 249 251 252 252 250 250 249 250 252 255 257 258 260 262 265 267 269 271 272 273 274 274 276
214 212 212 212 212 211 211 212 213 214 214 215 217 218 218 218 219 219 219 219 220 222 224 225 223 223 224 224 224 225 225 225 226 226 227 227 228 228 228 229 231 232 232 233 234 235 236 237 238 238 238 238 238 239 240 241 243 244 245 245 246 248 249 249 249 251 252 253 254 252 250 249 249 252 254 257 258 260 262 263 264 266 268 270 272 274 276 279
217 214 215 214 214 213 212 212 213 214 216 217 218 220 220 219 219 220 220 220 222 222 225 227 226 225 225 225 225 226 227 227 227 228 228 229 229 229 229 230 231 232 233 234 234 235 237 238 239 239 239 239 240 241 242 244 245 246 246 247 248 249 250 251 251 252 252 253 254 253 251 249 250 252 253 256 258 260 261 263 263 264 266 268 270 273 275 278
218 215 216 217 217 216 214 213 214 216 219 219 219 220 221 220 221 221 220 220 222 223 225 227 227 226 226 227 227 227 228 228 228 228 229 229 229 231 231 231 233 233 234 235 236 236 239 240 241 241 241 242 243 243 244 244 245 246 246 247 247 248 249 249 250 249 250 251 252 253 252 250 250 252 253 255 258 259 260 262 264 266 267 269 271 273 275 276
220 217 216 218 220 220 219 217 218 220 222 222 221 222 222 222 223 223 222 221 222 223 225 227 227 226 226 227 228 229 229 230 230 230 230 229 229 230 232 232 233 234 236 237 238 238 240 241 242 242 243 243 243 242 243 243 244 245 245 245 246 247 247 248 249 249 249 249 250 253 254 253 252 254 256 257 259 260 261 263 265 268 270 272 274 274 275 275
221 220 218 218 220 222 222 221 221 222 223 223 224 224 223 222 223 224 225 224 224 224 225 227 228 227 227 227 228 229 229 230 231 231 231 231 230 230 232 232 233 234 236 237 237 238 239 241 241 242 242 242 242 242 241 242 243 244 245 246 246 248 248 249 249 249 249 249 251 254 256 257 256 257 258 259 260 261 263 264 267 270 272 273 274 275 275 274
216 221 220 220 220 221 222 223 225 226 226 225 226 226 226 224 223 224 225 226 226 226 227 228 229 229 228 228 229 229 230 230 230 230 231 231 231 231 232 233 233 235 236 237 238 239 240 240 240 240 241 240 240 240 240 241 244 245 246 247 247 248 249 249 250 250 251 252 254 256 257 259 259 260 261 262 263 264 265 267 268 270 270 271 272 273 273 272
206 214 218 220 221 222 224 225 227 228 228 228 228 229 229 228 226 226 226 227 228 228 229 229 230 231 230 230 230 230 231 231 231 231 231 231 230 231 232 233 234 235 236 237 237 238 239 239 239 240 241 241 241 243 246 248 250 250 250 250 251 251 251 252 253 253 253 255 256 257 259 260 261 263 263 264 265 266 267 268 268 268 269 270 270 270 270 271
196 203 211 216 219 221 224 226 226 228 228 229 230 231 231 231 230 229 229 229 230 230 230 231 231 232 232 231 231 231 232 232 233 233 233 233 232 232 233 234 235 235 235 236 237 237 237 238 238 239 241 243 245 247 249 250 251 251 252 253 253 254 254 255 253 253 255 257 256 257 259 260 260 260 261 263 265 267 268 268 268 269 269 269 269 270 271 272
196 196 201 209 213 219 224 225 225 227 228 229 230 232 233 234 233 232 231 230 231 231 232 232 232 233 233 233 233 233 234 234 234 235 235 235 235 235 235 235 236 236 236 236 237 238 238 239 240 241 243 244 246 246 245 245 245 246 246 246 247 248 249 249 250 252 254 254 255 257 259 259 260 261 262 264 265 266 266 267 268 268 269 269 270 271 272 273
207 201 198 200 204 211 220 225 225 225 226 226 227 229 230 232 233 233 233 233 233 233 233 233 233 234 235 235 235 235 235 235 235 235 235 235 236 236 236 236 237 237 237 237 238 239 240 242 243 244 245 245 245 246 246 246 246 246 245 244 244 244 244 246 250 253 254 256 260 262 261 261 262 263 263 264 264 264 265 265 266 267 268 269 270 271 272 273
217 213 207 203 201 202 210 218 224 226 226 225 226 226 227 229 230 232 233 234 234 234 235 235 234 235 236 237 237 236 235 236 236 237 237 237 237 237 237 238 238 238 239 239 239 240 241 242 243 245 245 245 244 245 246 246 246 246 246 246 246 246 247 249 253 256 257 259 262 262 260 261 263 264 263 263 263 263 264 265 266 267 267 268 269 269 271 272
224 222 218 214 208 204 203 206 214 221 225 226 226 225 225 227 228 230 231 232 233 234 235 236 236 236 237 238 238 237 236 236 237 237 238 238 238 238 238 239 239 239 240 240 240 240 240 242 243 244 244 244 243 244 245 246 247 247 246 245 245 246 249 252 256 258 259 259 260 260 259 262 265 266 264 263 263 263 264 264 265 265 265 265 266 268 270 271
227 226 225 222 218 213 208 204 206 213 219 223 225 226 227 227 228 229 230 230 231 232 234 234 235 237 237 238 238 238 237 237 236 236 237 237 237 237 238 239 240 240 241 241 242 242 242 243 243 244 245 245 245 246 247 247 248 247 245 245 246 249 253 257 260 260 259 259 260 260 261 264 267 266 264 264 263 263 262 262 262 262 263 264 265 267 269 270
228 228 228 227 225 221 217 213 210 210 212 216 220 224 228 229 230 230 230 229 229 230 231 232 233 235 236 237 237 238 238 238 236 235 236 236 236 236 236 236 237 238 239 241 242 243 243 244 244 244 246 247 246 247 248 248 247 245 246 248 252 254 257 258 258 257 258 260 260 261 264 267 267 264 263 263 263 262 261 261 262 262 263 264 266 267 268 269
Height
5722 5725 5727 5730 5733 5736 5739 5742 5745 5748 5752 5755 5759 5761 5763 5765 5766 5767 5767 5768 5771 5773 5774 5777 5780 5783 5786 5789 5793 5798 5802 5806 5810 5813 5816 5819 5822 5826 5828 5831 5834 5836 5839 5842 5845 5848 5851 5853 5855 5858 5860 5863 5865 5867 5868 5869 5870 5871 5873 5874 5875 5876 5877 5877 5878 5879 5880 5881 5881 5881 5882 5882 5882 5883 5882 5882 5882 5883 5884 5884 5885 5885 5886 5886 5887 5887 5887 5887
5719 5722 5725 5727 5730 5733 5736 5739 5742 5746 5750 5753 5757 5759 5761 5763 5765 5766 5766 5767 5769 5771 5773 5775 5778 5781 5784 5788 5792 5796 5801 5805 5808 5812 5815 5818 5821 5824 5827 5830 5832 5835 5838 5841 5844 5847 5849 5852 5854 5857 5859 5862 5864 5866 5867 5869 5870 5871 5872 5873 5874 5875 5876 5877 5878 5879 5880 5880 5881 5881 5881 5881 5882 5882 5882 5882 5882 5883 5884 5884 5884 5885 5885 5886 5886 5887 5886 5886
5717 5719 5722 5725 5728 5731 5734 5737 5740 5743 5747 5751 5754 5757 5760 5762 5763 5764 5765 5766 5768 5770 5772 5774 5777 5780 5783 5787 5791 5795 5800 5803 5807 5811 5814 5817 5820 5823 5826 5828 5831 5834 5837 5840 5843 5846 5848 5850 5852 5855 5858 5861 5863 5865 5866 5868 5869 5871 5872 5872 5873 5874 5875 5876 5877 5878 5879 5880 5880 5881 5881 5881 5881 5881 5881 5882 5882 5883 5883 5884 5884 5884 5885 5885 5886 5886 5886 5886
5714 5717 5719 5722 5725 5728 5731 5734 5737 5741 5745 5748 5752 5755 5757 5760 5762 5763 5764 5765 5767 5770 5772 5774 5776 5779 5783 5787 5791 5794 5798 5803 5807 5810 5813 5817 5820 5822 5825 5827 5830 5833 5836 5839 5842 5844 5847 5848 5851 5854 5857 5859 5862 5864 5865 5867 5869 5870 5871 5872 5873 5873 5875 5876 5877 5878 5879 5879 5880 5880 5880 5880 5880 5880 5881 5881 5882 5882 5883 5883 5884 5884 5885 5885 5885 5886 5886 5886
5711 5714 5717 5719 5722 5725 5728 5732 5735 5739 5742 5746 5750 5752 5755 5758 5760 5761 5763 5764 5767 5770 5772 5775 5777 5779 5782 5786 5790 5793 5797 5802 5805 5809 5813 5816 5819 5821 5823 5826 5829 5832 5835 5838 5841 5843 5846 5848 5850 5853 5856 5859 5861 5863 5864 5866 5868 5869 5870 5871 5872 5873 5874 5875 5876 5877 5878 5879 5879 5879 5879 5880 5880 5880 5880 5881 5881 5882 5882 5883 5883 5884 5884 5885 5885 5886 5886 5886
5708 5711 5714 5717 5720 5723 5726 5729 5733 5736 5740 5744 5747 5750 5753 5756 5758 5760 5761 5763 5766 5769 5772 5775 5777 5780 5783 5786 5790 5793 5797 5801 5804 5807 5812 5815 5818 5820 5822 5825 5828 5831 5834 5837 5840 5842 5845 5847 5850 5852 5855 5857 5859 5861 5863 5865 5867 5868 5869 5870 5871 5872 5873 5874 5875 5876 5877 5878 5878 5879 5879 5879 5879 5879 5880 5880 5881 5881 5882 5882 5883 5883 5884 5884 5885 5885 5886 5886
5705 5708 5711 5714 5717 5720 5723 5727 5730 5734 5738 5741 5745 5748 5751 5754 5756 5758 5760 5762 5764 5768 5771 5774 5777 5780 5782 5786 5789 5793 5797 5800 5803 5806 5810 5813 5816 5819 5821 5824 5827 5830 5833 5836 5839 5841 5844 5846 5849 5851 5853 5856 5858 5860 5862 5864 5866 5867 5868 5869 5870 5871 5872 5873 5874 5875 5875 5876 5877 5878 5878 5879 5879 5879 5880 5880 5880 5881 5881 5881 5882 5883 5884 5884 5884 5885 5885 5886
5702 5705 5708 5712 5715 5718 5721 5724 5728 5732 5735 5739 5743 5746 5749 5752 5755 5757 5759 5761 5763 5766 5769 5772 5776 5779 5782 5785 5789 5793 5796 5799 5802 5805 5808 5811 5815 5817 5820 5823 5826 5829 5832 5835 5837 5840 5842 5845 5847 5850 5852 5854 5857 5859 5861 5862 5864 5865 5867 5868 5869 5870 5871 5872 5873 5874 5874 5875 5876 5877 5878 5878 5878 5878 5879 5879 5880 5880 5880 5881 5882 5882 5883 5884 5884 5884 5885 5885
5700 5702 5706 5709 5712 5715 5718 5722 5725 5729 5733 5737 5740 5744 5747 5750 5753 5755 5758 5760 5762 5765 5768 5771 5775 5778 5782 5785 5788 5792 5795 5798 5801 5804 5807 5810 5813 5816 5819 5822 5825 5828 5831 5833 5836 5838 5841 5844 5846 5848 5851 5853 5855 5858 5859 5861 5862 5864 5865 5867 5868 5869 5870 5871 5872 5873 5874 5874 5875 5876 5877 5878 5877 5877 5878 5879 5879 5879 5880 5880 5881 5882 5883 5883 5883 5884 5884 5884
5697 5700 5703 5706 5709 5713 5716 5719 5723 5726 5730 5734 5737 5741 5745 5748 5751 5753 5756 5759 5761 5764 5767 5770 5773 5777 5780 5783 5787 5791 5794 5796 5800 5803 5806 5809 5812 5815 5818 5821 5824 5826 5829 5832 5834 5837 5839 5842 5844 5846 5849 5851 5853 5855 5857 5859 5861 5862 5863 5865 5866 5868 5869 5870 5870 5872 5873 5873 5874 5875 5876 5877 5877 5877 5878 5878 5878 5878 5879 5880 5881 5881 5882 5882 5883 5883 5883 5884
5695 5697 5700 5703 5707 5710 5713 5717 5720 5724 5727 5731 5735 5738 5742 5746 5749 5751 5754 5757 5760 5763 5765 5769 5772 5775 5778 5782 5786 5789 5792 5795 5798 5801 5804 5808 5810 5813 5816 5819 5822 5825 5827 5830 5832 5834 5837 5839 5842 5845 5847 5849 5851 5853 5855 5857 5859 5860 5862 5863 5865 5866 5867 5868 5869 5870 5872 5872 5873 5874 5875 5876 5877 5877 5877 5877 5878 5878 5878 5879 5880 5880 5881 5882 5882 5882 5883 5883
5692 5695 5698 5701 5704 5707 5711 5714 5717 5721 5725 5728 5732 5736 5740 5744 5747 5749 5752 5755 5758 5761 5764 5767 5770 5773 5777 5780 5784 5787 5790 5793 5797 5800 5803 5806 5809 5811 5814 5817 5820 5823 5825 5828 5830 5832 5835 5838 5840 5843 5845 5847 5849 5851 5853 5855 5857 5858 5860 5861 5863 5864 5866 5867 5868 5869 5870 5871 5872 5873 5874 5875 5876 5876 5876 5876 5877 5877 5877 5878 5878 5879 5880 5881 5881 5882 5882 5882
5690 5692 5695 5698 5701 5705 5708 5711 5715 5719 5722 5726 5729 5733 5737 5741 5744 5747 5750 5753 5756 5759 5762 5765 5768 5771 5775 5778 5781 5785 5788 5792 5795 5798 5801 5804 5807 5809 5812 5815 5818 5821 5823 5826 5828 5830 5833 5836 5838 5840 5842 5845 5846 5848 5850 5852 5854 5856 5858 5859 5861 5862 5864 5866 5867 5867 5868 5870 5870 5871 5873 5874 5875 5875 5875 5876 5876 5876 5877 5877 5878 5878 5879 5880 5880 5881 5881 5881
5687 5690 5693 5695 5698 5702 5705 5709 5712 5716 5720 5723 5727 5730 5734 5738 5742 5745 5748 5751 5754 5757 5760 5763 5766 5770 5773 5776 5779 5782 5787 5790 5793 5796 5799 5802 5804 5807 5810 5812 5815 5818 5821 5823 5826 5828 5831 5833 5836 5838 5840 5842 5844 5846 5848 5850 5852 5854 5855 5857 5859 5861 5863 5864 5865 5866 5867 5868 5869 5870 5871 5872 5873 5874 5874 5874 5875 5875 5876 5876 5877 5877 5878 5879 5879 5880 5880 5880
5684 5687 5690 5692 5696 5699 5702 5706 5709 5713 5717 5721 5725 5728 5731 5735 5739 5742 5745 5748 5751 5754 5758 5761 5764 5768 5771 5774 5776 5780 5784 5788 5792 5794 5797 5799 5802 5805 5807 5810 5812 5815 5818 5821 5823 5826 5828 5831 5833 5835 5837 5840 5842 5844 5846 5848 5850 5851 5853 5855 5857 5859 5861 5862 5863 5864 5865 5866 5867 5868 5869 5870 5871 5872 5873 5873 5874 5874 5874 5875 5876 5876 5877 5877 5878 5878 5879 5879
5681 5684 5687 5689 5692 5696 5699 5703 5706 5710 5714 5718 5722 5725 5729 5732 5736 5739 5742 5746 5749 5752 5755 5758 5762 5765 5769 5772 5775 5779 5782 5786 5789 5792 5795 5797 5800 5802 5804 5807 5810 5813 5815 5818 5820 5823 5825 5828 5830 5832 5835 5837 5839 5841 5843 5845 5847 5849 5851 5853 5856 5857 5858 5859 5860 5862 5863 5864 5865 5866 5868 5868 5869 5870 5871 5872 5872 5873 5873 5874 5874 5875 5876 5876 5876 5877 5877 5877
5677 5681 5684 5686 5689 5693 5696 5700 5703 5707 5711 5714 5718 5722 5726 5730 5733 5736 5739 5743 5746 5749 5753 5756 5760 5763 5767 5769 5773 5777 5781 5784 5787 5790 5792 5795 5797 5800 5802 5805 5807 5810 5813 5815 5818 5820 5823 5825 5828 5830 5833 5835 5837 5838 5840 5843 5845 5848 5850 5852 5854 5855 5856 5857 5858 5860 5861 5862 5863 5864 5866 5867 5867 5868 5869 5870 5871 5871 5872 5872 5873 5874 5874 5875 5875 5875 5875 5875
5674 5677 5680 5683 5686 5689 5693 5696 5700 5703 5707 5711 5715 5719 5723 5727 5730 5734 5737 5740 5743 5747 5750 5753 5757 5760 5764 5768 5771 5775 5779 5782 5784 5787 5790 5793 5795 5798 5800 5803 5805 5808 5810 5812 5815 5818 5820 5823 5825 5827 5829 5832 5834 5836 5839 5842 5845 5847 5848 5850 5851 5852 5853 5855 5856 5857 5859 5860 5861 5862 5864 5865 5865 5866 5867 5868 5869 5870 5870 5871 5872 5872 5873 5873 5874 5874 5874 5874
5670 5674 5677 5680 5682 5686 5689 5693 5696 5700 5704 5708 5712 5716 5720 5724 5728 5731 5735 5738 5741 5744 5747 5751 5755 5759 5762 5766 5769 5773 5776 5779 5782 5785 5787 5790 5793 5796 5798 5800 5803 5805 5807 5810 5813 5815 5818 5820 5822 5825 5828 5831 5834 5836 5838 5841 5843 5843 5844 5846 5847 5849 5851 5852 5853 5855 5856 5857 5859 5860 5862 5863 5863 5864 5865 5866 5867 5868 5869 5870 5870 5871 5871 5872 5872 5872 5872 5872
5665 5670 5673 5676 5679 5682 5685 5689 5693 5697 5701 5705 5709 5713 5717 5721 5725 5728 5732 5736 5739 5742 5746 5750 5754 5757 5761 5764 5767 5771 5774 5777 5779 5782 5785 5787 5790 5793 5795 5798 5800 5803 5805 5808 5810 5813 5816 5818 5821 5825 5828 5830 5832 5833 5835 5837 5838 5839 5841 5843 5845 5847 5848 5849 5851 5852 5853 5855 5856 5858 5859 5860 5861 5862 5863 5863 5865 5867 5868 5868 5868 5869 5869 5870 5870 5870 5870 5870
5661 5666 5669 5672 5675 5678 5681 5685 5689 5694 5698 5702 5706 5711 5715 5720 5723 5726 5730 5733 5735 5739 5742 5747 5750 5754 5758 5761 5765 5768 5771 5774 5777 5780 5783 5785 5788 5790 5793 5796 5799 5801 5803 5806 5808 5810 5813 5816 5820 5823 5824 5825 5827 5829 5831 5833 5835 5837 5839 5840 5843 5844 5846 5847 5848 5849 5851 5852 5854 5855 5856 5858 5859 5859 5860 5860 5863 5865 5866 5866 5866 5866 5867 5868 5868 5868 5868 5868
5657 5661 5665 5668 5671 5674 5678 5682 5686 5691 5695 5700 5704 5709 5713 5717 5721 5724 5727 5730 5733 5735 5738 5742 5747 5750 5755 5758 5762 5765 5768 5772 5775 5778 5780 5783 5786 5788 5791 5794 5797 5799 5802 5804 5806 5808 5810 5814 5817 5818 5819 5821 5823 5826 5828 5830 5832 5834 5836 5838 5840 5841 5843 5844 5845 5847 5848 5849 5851 5852 5853 5856 5857 5857 5858 5859 5861 5863 5863 5863 5864 5864 5865 5866 5866 5865 5866 5866
5652 5657 5661 5664 5668 5671 5675 5679 5683 5688 5693 5698 5703 5706 5709 5713 5716 5719 5722 5726 5729 5732 5735 5739 5742 5746 5751 5755 5759 5762 5765 5769 5772 5775 5778 5781 5783 5786 5789 5792 5794 5797 5799 5802 5804 5806 5810 5812 5813 5814 5817 5819 5821 5824 5826 5827 5830 5831 5833 5835 5837 5839 5840 5841 5842 5844 5845 5846 5848 5849 5850 5853 5855 5855 5856 5856 5858 5861 5861 5861 5862 5862 5863 5864 5863 5863 5863 5863
5648 5653 5657 5661 5664 5668 5671 5676 5681 5686 5691 5695 5699 5702 5705 5708 5711 5714 5718 5721 5725 5728 5732 5736 5739 5743 5747 5751 5755 5759 5762 5766 5769 5772 5775 5778 5781 5784 5786 5789 5791 5794 5796 5799 5801 5804 5806 5808 5809 5812 5815 5816 5818 5821 5823 5824 5827 5829 5830 5832 5834 5836 5837 5838 5840 5841 5842 5843 5845 5846 5847 5850 5852 5852 5853 5854 5856 5858 5858 5858 5859 5860 5861 5861 5861 5861 5860 5860
5644 5648 5653 5657 5661 5665 5668 5672 5678 5683 5687 5692 5695 5698 5701 5704 5706 5710 5713 5716 5719 5723 5726 5731 5736 5740 5744 5748 5752 5756 5759 5763 5766 5769 5772 5775 5778 5781 5783 5786 5788 5791 5793 5796 5798 5800 5802 5804 5807 5809 5811 5813 5815 5817 5820 5821 5823 5825 5827 5829 5831 5832 5834 5835 5836 5837 5839 5840 5842 5843 5843 5846 5849 5850 5850 5852 5853 5855 5855 5855 5856 5857 5858 5858 5858 5857 5856 5858
5640 5644 5649 5653 5657 5662 5665 5670 5675 5678 5683 5688 5690 5693 5697 5699 5702 5705 5709 5711 5713 5717 5722 5727 5731 5735 5740 5745 5749 5752 5756 5760 5763 5767 5769 5772 5775 5778 5780 5783 5785 5788 5790 5792 5794 5796 5799 5801 5804 5806 5808 5810 5812 5814 5816 5818 5820 5822 5824 5826 5828 5829 5830 5831 5833 5834 5835 5836 5839 5840 5839 5841 5846 5847 5848 5850 5851 5852 5852 5853 5854 5855 5855 5855 5855 5854 5854 5855
5636 5640 5644 5649 5655 5658 5662 5667 5671 5675 5680 5683 5685 5689 5692 5695 5697 5701 5705 5705 5706 5713 5719 5723 5727 5732 5737 5741 5745 5749 5752 5756 5761 5763 5766 5769 5772 5775 5777 5780 5782 5784 5787 5789 5791 5794 5797 5799 5801 5803 5805 5807 5809 5811 5813 5815 5817 5819 5821 5823 5824 5825 5826 5827 5829 5830 5831 5833 5835 5836 5837 5837 5841 5845 5846 5847 5848 5849 5849 5850 5851 5852 5852 5852 5851 5851 5852 5852
5632 5636 5640 5646 5651 5654 5658 5662 5667 5672 5675 5677 5681 5685 5687 5690 5693 5697 5699 5697 5701 5710 5715 5719 5725 5730 5733 5737 5741 5745 5749 5754 5757 5759 5763 5766 5769 5771 5774 5777 5779 5781 5784 5786 5789 5792 5794 5796 5798 5801 5803 5805 5807 5809 5810 5812 5814 5816 5818 5819 5820 5821 5822 5823 5825 5826 5828 5829 5831 5834 5835 5833 5836 5843 5844 5844 5845 5846 5847 5847 5848 5849 5849 5849 5848 5848 5849 5848
5628 5632 5636 5641 5646 5650 5654 5658 5663 5666 5668 5671 5676 5678 5681 5684 5687 5690 5690 5690 5697 5706 5711 5717 5722 5725 5729 5734 5738 5742 5746 5750 5753 5757 5761 5762 5765 5768 5771 5774 5776 5777 5780 5783 5786 5788 5790 5792 5794 5796 5799 5801 5803 5804 5806 5808 5810 5812 5814 5815 5816 5817 5819 5820 5821 5823 5824 5826 5828 5830 5832 5831 5832 5838 5841 5841 5843 5843 5844 5844 5844 5845 5846 5845 5845 5845 5844 5844
5623 5627 5632 5637 5642 5646 5651 5655 5657 5658 5661 5667 5670 5673 5676 5677 5680 5681 5681 5686 5696 5703 5708 5713 5718 5722 5726 5730 5734 5739 5743 5746 5750 5753 5755 5757 5761 5764 5767 5769 5772 5774 5777 5779 5781 5783 5786 5787 5789 5792 5794 5796 5798 5800 5802 5804 5806 5808 5810 5811 5813 5813 5815 5816 5818 5820 5820 5822 5824 5826 5829 5829 5827 5832 5838 5838 5840 5840 5840 5841 5842 5842 5842 5841 5841 5840 5840 5841
5619 5623 5627 5633 5638 5642 5647 5649 5650 5653 5658 5661 5664 5667 5669 5671 5673 5673 5677 5690 5696 5698 5704 5709 5713 5719 5724 5728 5732 5736 5739 5742 5745 5747 5750 5754 5756 5759 5761 5764 5767 5769 5772 5775 5777 5779 5781 5783 5785 5788 5791 5793 5795 5797 5799 5801 5803 5804 5806 5807 5809 5810 5811 5813 5814 5815 5816 5818 5821 5822 5826 5826 5823 5827 5833 5834 5835 5837 5837 5838 5838 5838 5837 5837 5836 5836 5836 5837
5615 5618 5623 5628 5633 5637 5641 5642 5644 5649 5652 5655 5658 5660 5662 5663 5664 5667 5680 5691 5690 5692 5701 5707 5711 5718 5722 5726 5729 5732 5735 5737 5741 5744 5746 5750 5752 5755 5758 5760 5764 5766 5769 5772 5774 5776 5778 5780 5783 5785 5788 5790 5792 5793 5795 5797 5799 5800 5802 5804 5805 5807 5808 5809 5810 5811 5813 5815 5817 5818 5821 5822 5821 5825 5828 5827 5830 5833 5834 5834 5834 5833 5832 5832 5831 5831 5831 5832
5610 5614 5618 5623 5629 5633 5634 5635 5639 5643 5646 5650 5651 5653 5655 5655 5658 5670 5683 5686 5684 5691 5702 5706 5710 5715 5718 5720 5723 5726 5730 5733 5737 5740 5742 5745 5748 5751 5754 5757 5761 5764 5767 5771 5772 5774 5776 5778 5780 5782 5784 5787 5788 5790 5792 5794 5796 5797 5799 5800 5802 5803 5803 5804 5806 5807 5809 5811 5812 5814 5816 5817 5820 5823 5823 5822 5825 5829 5830 5829 5829 5828 5827 5827 5827 5827 5827 5826
5605 5609 5613 5619 5624 5625 5626 5629 5633 5637 5640 5643 5644 5647 5647 5648 5660 5674 5679 5680 5682 5690 5698 5702 5705 5709 5711 5715 5718 5722 5725 5728 5731 5735 5737 5740 5743 5746 5750 5753 5757 5760 5763 5766 5768 5770 5772 5775 5778 5780 5781 5784 5785 5787 5789 5790 5792 5792 5794 5795 5796 5798 5798 5799 5801 5803 5805 5807 5807 5809 5811 5814 5818 5819 5819 5819 5820 5822 5824 5824 5824 5823 5823 5823 5822 5822 5822 5822
5600 5604 5608 5613 5617 5618 5621 5624 5628 5631 5633 5636 5639 5639 5640 5649 5664 5672 5673 5677 5681 5686 5693 5697 5699 5702 5705 5709 5712 5716 5720 5723 5726 5729 5731 5735 5739 5743 5747 5750 5753 5756 5759 5761 5763 5766 5768 5771 5774 5776 5777 5780 5781 5782 5784 5785 5786 5787 5788 5790 5792 5794 5795 5796 5797 5799 5801 5802 5803 5806 5807 5811 5814 5815 5816 5816 5816 5816 5817 5818 5818 5818 5819 5819 5819 5818 5818 5817
5595 5599 5603 5607 5611 5614 5617 5619 5622 5625 5627 5630 5631 5632 5640 5654 5666 5669 5671 5675 5678 5682 5688 5690 5691 5694 5697 5701 5705 5709 5714 5718 5722 5724 5727 5731 5735 5739 5743 5747 5750 5753 5756 5759 5761 5763 5765 5768 5770 5772 5773 5774 5775 5777 5778 5779 5781 5783 5784 5787 5789 5790 5791 5792 5794 5795 5797 5797 5799 5802 5804 5807 5810 5811 5812 5812 5812 5811 5810 5811 5812 5812 5813 5814 5814 5814 5814 5813
5591 5594 5598 5602 5605 5608 5611 5614 5617 5619 5622 5624 5625 5631 5645 5657 5661 5664 5666 5670 5674 5677 5679 5681 5685 5688 5691 5696 5700 5705 5710 5713 5715 5719 5723 5726 5729 5734 5739 5742 5745 5749 5753 5755 5757 5759 5762 5763 5765 5767 5768 5769 5771 5772 5773 5775 5777 5779 5780 5783 5785 5784 5786 5788 5788 5790 5791 5792 5795 5799 5801 5804 5806 5806 5808 5808 5808 5807 5806 5806 5806 5806 5807 5807 5807 5808 5808 5807
5587 5590 5593 5596 5599 5602 5605 5608 5611 5614 5617 5618 5622 5634 5646 5651 5652 5655 5659 5665 5669 5671 5672 5675 5680 5685 5688 5693 5697 5701 5704 5707 5710 5714 5718 5720 5723 5730 5735 5738 5741 5745 5747 5749 5751 5753 5755 5757 5759 5761 5762 5764 5765 5766 5768 5770 5773 5774 5776 5778 5779 5779 5782 5784 5784 5786 5788 5789 5791 5795 5797 5799 5801 5803 5804 5803 5803 5803 5802 5802 5802 5801 5802 5801 5801 5801 5801 5801
5581 5585 5588 5590 5593 5595 5599 5602 5605 5609 5610 5613 5621 5633 5641 5644 5646 5650 5656 5660 5663 5665 5666 5669 5675 5680 5684 5689 5694 5697 5699 5702 5706 5710 5713 5716 5720 5726 5731 5734 5737 5740 5742 5744 5745 5747 5749 5751 5752 5755 5757 5758 5759 5761 5764 5767 5769 5770 5772 5773 5774 5776 5778 5780 5780 5782 5784 5784 5786 5789 5791 5794 5798 5799 5799 5798 5799 5799 5798 5798 5798 5798 5798 5797 5797 5796 5796 5796
5576 5580 5582 5585 5588 5590 5593 5596 5599 5602 5605 5613 5624 5632 5635 5637 5640 5645 5651 5654 5656 5659 5661 5663 5670 5675 5679 5684 5688 5690 5695 5698 5702 5706 5709 5713 5718 5722 5726 5730 5733 5735 5737 5737 5739 5742 5743 5745 5747 5749 5750 5752 5755 5758 5762 5764 5764 5766 5767 5769 5771 5773 5774 5775 5776 5777 5779 5779 5781 5782 5785 5790 5794 5795 5795 5794 5794 5795 5794 5793 5793 5794 5794 5794 5793 5793 5793 5792
5572 5575 5578 5581 5583 5585 5588 5590 5593 5597 5605 5615 5622 5625 5627 5630 5634 5639 5643 5647 5650 5654 5656 5658 5664 5670 5674 5678 5682 5685 5689 5692 5696 5700 5703 5708 5714 5718 5723 5727 5729 5730 5730 5730 5734 5738 5738 5739 5741 5742 5744 5749 5752 5755 5757 5757 5758 5760 5762 5764 5767 5768 5769 5769 5769 5772 5773 5774 5775 5776 5778 5786 5790 5790 5790 5790 5790 5790 5789 5788 5788 5789 5789 5790 5789 5789 5789 5788
5567 5570 5574 5577 5579 5582 5584 5587 5590 5596 5603 5611 5615 5617 5621 5627 5631 5633 5636 5640 5644 5647 5650 5652 5657 5663 5668 5672 5676 5680 5683 5687 5690 5694 5698 5704 5710 5715 5719 5721 5723 5724 5724 5726 5730 5733 5733 5733 5735 5737 5740 5744 5746 5747 5750 5751 5752 5754 5756 5760 5762 5762 5762 5763 5763 5766 5767 5767 5770 5771 5773 5781 5786 5785 5786 5786 5785 5784 5784 5784 5784 5784 5785 5785 5783 5783 5783 5782
5563 5567 5570 5572 5575 5578 5579 5582 5586 5591 5599 5606 5609 5611 5616 5621 5624 5627 5630 5635 5638 5641 5645 5647 5651 5657 5662 5666 5670 5673 5677 5681 5684 5689 5695 5700 5705 5710 5711 5712 5715 5717 5717 5720 5723 5725 5726 5726 5728 5731 5734 5736 5738 5740 5743 5744 5746 5748 5752 5756 5756 5756 5757 5757 5758 5760 5760 5762 5767 5766 5768 5777 5781 5780 5781 5781 5780 5779 5778 5780 5781 5780 5780 5779 5777 5776 5776 5775
5561 5564 5566 5568 5570 5572 5573 5577 5583 5590 5597 5602 5602 5605 5610 5615 5618 5621 5624 5629 5633 5637 5640 5643 5647 5652 5657 5661 5664 5668 5672 5674 5678 5684 5689 5693 5698 5703 5703 5705 5708 5710 5711 5715 5717 5719 5719 5718 5721 5723 5724 5726 5729 5732 5735 5738 5741 5745 5748 5750 5749 5750 5751 5750 5752 5754 5754 5759 5763 5761 5764 5773 5775 5775 5776 5774 5774 5774 5774 5775 5776 5775 5774 5774 5772 5771 5768 5767
5556 5559 5562 5564 5566 5566 5569 5575 5582 5588 5592 5593 5596 5601 5605 5609 5613 5617 5620 5624 5628 5632 5635 5639 5643 5647 5651 5655 5659 5662 5665 5669 5674 5678 5682 5686 5691 5695 5696 5698 5701 5704 5707 5709 5710 5711 5709 5710 5714 5715 5715 5718 5723 5727 5733 5738 5740 5740 5742 5744 5745 5745 5745 5746 5748 5746 5748 5756 5757 5754 5760 5768 5770 5770 5769 5768 5767 5767 5768 5769 5769 5769 5768 5768 5766 5764 5762 5761
5550 5553 5556 5559 5560 5561 5565 5572 5577 5581 5584 5588 5592 5597 5600 5603 5609 5614 5617 5619 5622 5627 5630 5634 5638 5641 5644 5648 5652 5656 5660 5665 5669 5672 5676 5682 5686 5689 5691 5693 5695 5698 5701 5701 5701 5702 5700 5701 5706 5708 5710 5716 5722 5727 5731 5733 5732 5733 5737 5739 5739 5739 5740 5741 5739 5738 5745 5751 5748 5750 5757 5761 5763 5763 5762 5762 5762 5761 5762 5762 5761 5762 5762 5760 5758 5756 5756 5756
5545 5548 5551 5554 5555 5556 5560 5567 5572 5576 5581 5584 5588 5592 5595 5600 5604 5607 5610 5613 5617 5621 5624 5628 5632 5634 5637 5643 5648 5652 5657 5661 5663 5667 5673 5678 5681 5683 5685 5686 5689 5691 5693 5693 5694 5694 5693 5695 5701 5704 5707 5714 5719 5720 5720 5722 5723 5725 5729 5729 5730 5731 5731 5730 5729 5735 5742 5740 5738 5748 5753 5752 5757 5758 5755 5758 5758 5754 5755 5754 5753 5755 5755 5752 5751 5750 5749 5749
5539 5543 5546 5549 5551 5553 5556 5562 5568 5572 5575 5578 5582 5586 5590 5593 5596 5599 5605 5609 5612 5615 5618 5621 5625 5629 5634 5639 5643 5647 5652 5654 5656 5662 5668 5671 5674 5676 5678 5680 5682 5684 5686 5686 5687 5688 5687 5690 5697 5700 5702 5709 5712 5710 5711 5714 5715 5717 5719 5719 5721 5722 5721 5721 5725 5732 5735 5729 5734 5747 5745 5742 5751 5754 5749 5752 5751 5747 5748 5747 5746 5748 5749 5746 5745 5743 5743 5743
5534 5537 5540 5543 5546 5550 5553 5557 5562 5565 5568 5572 5576 5580 5584 5587 5590 5596 5600 5603 5605 5609 5611 5615 5621 5627 5630 5632 5636 5640 5644 5647 5652 5658 5663 5666 5668 5669 5672 5674 5676 5678 5680 5680 5681 5682 5682 5686 5693 5694 5695 5701 5703 5701 5703 5706 5707 5709 5711 5712 5713 5714 5714 5716 5721 5728 5728 5723 5729 5738 5733 5734 5746 5747 5743 5745 5743 5740 5741 5741 5741 5742 5742 5740 5738 5736 5736 5736
5527 5530 5533 5537 5541 5545 5549 5552 5555 5558 5561 5565 5569 5574 5579 5582 5586 5591 5594 5596 5600 5603 5606 5611 5618 5623 5624 5625 5628 5632 5637 5643 5648 5653 5656 5658 5660 5663 5666 5668 5671 5673 5673 5673 5675 5676 5676 5681 5686 5687 5687 5690 5694 5695 5696 5698 5698 5700 5702 5703 5705 5706 5708 5712 5717 5722 5721 5716 5721 5726 5723 5728 5740 5741 5737 5738 5736 5733 5734 5734 5735 5735 5734 5733 5731 5730 5730 5729
5520 5524 5527 5531 5534 5539 5543 5547 5550 5552 5555 5559 5563 5569 5573 5576 5582 5586 5587 5590 5594 5597 5602 5608 5613 5615 5615 5617 5620 5625 5632 5637 5640 5644 5647 5649 5652 5657 5659 5661 5664 5666 5666 5668 5669 5669 5672 5676 5679 5680 5677 5681 5689 5690 5689 5691 5690 5688 5690 5695 5698 5701 5704 5709 5712 5714 5711 5709 5713 5715 5714 5723 5735 5734 5729 5730 5728 5725 5726 5727 5727 5726 5726 5726 5725 5725 5725 5724
5514 5517 5521 5524 5527 5531 5536 5540 5543 5546 5550 5555 5560 5564 5567 5571 5577 5578 5578 5582 5587 5592 5597 5602 5605 5605 5606 5609 5615 5622 5625 5627 5632 5637 5639 5641 5644 5648 5649 5651 5655 5657 5658 5661 5662 5663 5667 5669 5673 5673 5670 5675 5684 5683 5681 5682 5676 5672 5682 5694 5697 5698 5702 5702 5702 5703 5704 5704 5704 5704 5708 5719 5726 5722 5719 5720 5719 5716 5717 5718 5718 5719 5719 5719 5719 5719 5718 5718